Location: Ammertepass
(46.4300°N, 7.5295°E)
Time: 02:22:20
(UTC+00:00)

Daily predictions for brighter satellites

Satellite Brightness Start Highest point End
(mag) Time Altitude Azimuth Time Altitude Azimuth Time Altitude Azimuth
SL-16 R/B 4.1 01:04:18 28° N 01:04:18 28° N 01:06:58 10° NNW
ADEOS II 4.2 01:02:00 10° NE 01:04:24 22° ENE 01:04:24 22° ENE
Cosmos 1697 Rocket 4.4 01:14:51 29° NE 01:14:51 29° NE 01:17:37 10° NNE
Cosmos 1980 Rocket 3.9 01:20:38 28° ENE 01:20:38 28° ENE 01:23:50 10° NE
Cosmos 2263 Rocket 4.0 01:16:30 10° N 01:21:22 28° NE 01:26:12 10° ESE
USA 234 4.2 01:19:47 10° E 01:25:49 41° NNE 01:28:11 31° NNW
SL-16 R/B 4.4 01:38:10 15° ESE 01:39:13 16° E 01:42:32 10° ENE
Resurs 1-4 Rocket 3.7 01:49:29 10° N 01:51:58 27° N 01:51:58 27° N
CZ-2D R/B 3.7 01:52:42 10° N 01:55:14 27° N 01:55:14 27° N
Nadezhda 3 Rocket 4.2 02:01:33 62° N 02:01:33 62° N 02:06:36 10° N
SJ 16-02 3.7 02:01:34 10° N 02:03:00 19° N 02:03:00 19° N
Gbstr 26 Del rocket 4.4 02:06:54 61° NW 02:08:35 86° NNE 02:16:13 10° ESE
Lacrosse 5 3.0 02:13:50 40° N 02:13:50 40° N 02:17:32 10° NE
ATLAS 5 CENTAUR R/B 4.1 02:16:15 14° NNW 02:16:21 14° NNW 02:19:02 10° NNE
H-2A R/B 4.2 02:18:00 10° ESE 02:21:40 26° ENE 02:25:23 10° N
Cosmos 2278 4.0 02:23:24 61° NNW 02:23:24 61° NNW 02:28:18 10° NNE
ARIANE 5 R/B 2.7 02:20:49 10° NNE 02:25:30 66° ENE 02:25:30 66° ENE
IRS-P3 4.3 02:21:05 10° NNE 02:25:43 68° N 02:25:43 68° N
Meteor 1-14 Rocket 4.4 02:20:57 10° NNW 02:25:32 61° NNW 02:25:32 61° NNW
SL-4 R/B 3.7 02:27:59 32° ESE 02:27:59 32° ESE 02:31:16 10° ENE
Cosmos 2369 4.5 02:33:25 40° NW 02:33:25 40° NW 02:38:06 10° NNE
CZ-2C R/B 4.4 02:29:26 10° NNE 02:32:41 31° E 02:32:41 31° E
USA 267 3.3 02:26:26 10° NE 02:32:59 69° SE 02:34:08 58° S
USA 305 4.3 02:34:11 34° NNE 02:34:11 34° NNE 02:37:15 10° NE
NOSS 3-3 (A) 3.8 02:34:42 74° S 02:35:15 82° SE 02:41:54 10° NE
NOSS 3-3 (C) 3.8 02:34:50 74° S 02:35:21 81° SE 02:41:59 10° NE
IRS-1D 4.4 02:31:44 10° N 02:35:33 39° NNW 02:35:33 39° NNW
USA 306 4.2 02:38:23 34° N 02:38:23 34° N 02:41:38 10° NE
ADEOS II 2.9 02:41:27 10° N 02:45:19 37° NW 02:45:19 37° NW
Cosmos 990 Rocket 4.1 02:44:07 10° NNW 02:49:20 74° ENE 02:54:33 10° SSE
Cosmos 1339 Rocket 4.4 02:47:25 46° S 02:49:26 88° E 02:55:39 10° N
ATLAS 2AS CENTAUR R/B 3.6 02:42:23 10° NW 02:49:48 52° NE 02:56:38 10° ESE
IDEFIX/ARIANE 42P 2.5 02:45:04 10° NNE 02:50:23 87° ESE 02:51:13 65° S
Cosmos 921 Rocket 3.4 02:52:55 52° N 02:52:55 52° N 02:56:12 10° NNE
Cosmos 2360 Rocket 4.0 02:47:56 10° SSE 02:52:37 27° ESE 02:57:19 10° NE
BREEZE-M DEB (TANK) 4.5 02:51:05 43° SW 02:53:55 68° SSE 03:19:46 10° ENE
Cosmos 1697 Rocket 3.9 02:56:36 27° NW 02:56:36 27° NW 03:01:10 10° N
Cosmos 468 Rocket 4.1 02:57:17 46° S 02:58:49 72° ESE 03:04:04 10° NNE
Celestis-02/Orion 38 4.5 02:56:01 10° SSE 03:01:16 90° NE 03:06:26 10° NNW
Cosmos 1980 Rocket 2.8 03:02:24 39° WNW 03:02:39 40° NW 03:07:58 10° NNE
Cosmos 2263 Rocket 2.2 03:00:06 10° NW 03:05:37 56° WSW 03:11:09 10° S
USA 307 4.1 03:06:10 31° NNW 03:06:45 32° N 03:10:36 10° NE
Meteor 1-11 Rocket 3.9 03:01:03 10° N 03:06:50 74° ENE 03:12:27 10° SSE
USA 234 3.3 03:01:52 10° ESE 03:08:25 82° NNE 03:14:59 10° NW
USA 308 4.1 03:09:21 30° NNW 03:10:06 32° N 03:13:57 10° NE
Cosmos 1844 Rocket 4.0 03:04:53 10° NNW 03:10:13 41° NE 03:15:32 10° SE
Cosmos 44 4.0 03:10:35 34° NW 03:10:35 34° NW 03:14:53 10° NNE
Cosmos 2322 Rocket 2.4 03:08:23 30° S 03:11:15 69° ESE 03:16:56 10° NNE
Meteor 1-4 Rocket 2.8 03:13:45 60° N 03:13:45 60° N 03:16:44 10° N
Meteor 1-27 Rocket 4.1 03:10:12 10° S 03:16:04 67° E 03:21:55 10° NNE
Cosmos 1666 2.6 03:12:55 10° N 03:16:45 84° E 03:18:11 37° SSE
Cosmos 1707 Rocket 3.8 03:14:39 27° S 03:16:54 68° E 03:21:15 10° NNE
CZ-2D R/B 3.8 03:13:39 10° N 03:17:38 50° WNW 03:17:38 50° WNW
Cosmos 1812 3.1 03:21:36 46° NW 03:21:36 46° NW 03:24:49 10° N
Cosmos 1934 Rocket 4.5 03:15:40 10° NNW 03:20:56 35° W 03:20:56 35° W
SL-16 R/B 2.1 03:20:03 35° SSW 03:22:33 83° WNW 03:28:17 10° NNE
CZ-3B R/B 3.4 03:21:33 26° NW 03:23:14 38° N 03:33:04 10° ENE
USA 276 2.6 03:25:21 53° N 03:25:35 55° NNE 03:28:45 10° E
COSMOS 2441 4.3 03:20:40 10° N 03:25:35 74° WNW 03:27:54 31° SSW
Cosmos 1536 2.8 03:24:59 10° N 03:29:05 82° E 03:33:09 10° S
Cosmos 2173 Rocket 4.3 03:25:08 10° N 03:31:31 73° E 03:37:52 10° SSE
Cosmos 1733 Rocket 3.4 03:27:11 10° N 03:31:31 65° E 03:35:47 10° SSE
ATLAS CENTAUR R/B 4.0 03:21:01 10° WNW 03:31:36 46° NNE 03:35:51 10° E
Spot 4 Rocket 4.3 03:27:48 10° N 03:32:42 46° WNW 03:34:17 35° WSW
CZ-2C R/B 2.7 03:28:18 10° NNE 03:33:28 72° ESE 03:38:39 10° S
Cosmos 1898 Rocket 3.6 03:29:01 10° NNW 03:34:08 52° WSW 03:39:15 10° S
ASTEX 1 4.3 03:34:05 10° NNW 03:38:20 29° WNW 03:38:38 28° W
ALOS 4.1 03:34:20 10° NNE 03:38:32 32° E 03:42:43 10° SSE
CZ-4C R/B 4.0 03:33:20 10° NNW 03:39:59 45° NE 03:47:40 10° ESE
Cosmos 2219 Rocket 4.4 03:36:46 10° SSE 03:41:16 25° ESE 03:45:48 10° NE
Cosmos 1869 Rocket 4.3 03:37:27 10° NNW 03:40:47 31° WNW 03:40:47 31° WNW
Cosmos 858 Rocket 4.4 03:36:41 10° NNW 03:41:49 62° WSW 03:46:56 10° S
MSX 4.0 03:36:40 10° N 03:42:16 53° WNW 03:45:54 22° SW
Cosmos 967 Rocket 4.5 03:40:08 22° SW 03:44:31 81° NW 03:50:58 10° NNE
Landsat 5 3.9 03:42:32 10° S 03:46:52 45° W 03:51:10 10° NNW
PSLV R/B 3.4 03:43:04 10° N 03:47:17 79° WNW 03:51:00 13° SSW
Cosmos 2228 Rocket 4.3 03:48:01 23° WNW 03:48:01 23° WNW 03:51:29 10° NNW
Cosmos 1862 Rocket 3.6 03:47:12 10° S 03:51:34 78° E 03:55:56 10° NNE
CZ-4C R/B 4.0 03:55:01 27° WNW 03:55:01 27° WNW 03:57:31 10° NW
Cosmos 1937 Rocket 3.6 03:50:16 10° NNW 03:55:11 47° WSW 04:00:04 10° S
Lacrosse 5 3.5 03:53:01 13° WNW 03:56:35 25° N 04:00:47 10° NE
H-2A R/B 2.6 03:53:23 10° SSW 03:57:27 37° W 04:01:38 10° NNW
X-37B 2.4 03:59:50 18° SSW 03:59:50 18° SSW 04:01:50 10° SSE
ERBS 3.9 03:58:34 19° NW 03:59:47 23° NNW 04:02:33 10° NNE
Cosmos 2208 Rocket 4.0 03:54:41 10° SSW 03:59:56 88° ESE 04:05:09 10° NNE
Cosmos 841 Rocket 3.4 03:56:30 11° SSW 04:01:33 74° WNW 04:06:50 10° NNE
USA 32 4.3 03:57:35 10° NNW 04:02:35 45° W 04:07:33 10° SSW
FALCON 9 DEB 3.5 04:01:05 28° W 04:02:36 51° NNW 04:05:59 10° NE
ERS-2 2.3 03:59:04 10° S 04:02:37 48° WSW 04:06:12 10° NNW
Cosmos 2016 Rocket 4.0 03:56:53 10° N 04:03:02 84° E 04:09:08 10° S
ATLAS 5 CENTAUR R/B 4.4 04:01:05 10° NNW 04:03:14 12° N 04:05:30 10° NE
ARIANE 5 R/B 4.0 04:01:02 10° NNW 04:04:28 18° WNW 04:05:50 17° W
Cosmos 1743 2.7 04:00:47 10° N 04:04:36 84° E 04:08:25 10° S
Cosmos 2061 Rocket 4.1 03:58:43 10° N 04:05:13 86° E 04:11:39 10° S
Cosmos 1814 Rocket 4.0 04:00:32 10° SSW 04:05:45 84° WNW 04:11:05 10° NNE
SL-4 R/B 2.4 04:03:35 22° W 04:06:31 69° NNW 04:11:19 10° ENE
Cosmos 1000 Rocket 4.4 04:00:57 10° SSW 04:07:06 72° W 04:13:16 10° N
CZ-2C R/B 4.0 04:04:08 10° NNW 04:07:09 22° WNW 04:08:04 21° W
Cosmos 1763 Rocket 4.2 04:04:27 19° WSW 04:07:39 37° WNW 04:12:34 10° N
Cosmos 2333 Rocket 3.4 04:03:12 10° S 04:08:38 44° ESE 04:14:05 10° NE
Cosmos 2150 Rocket 4.3 04:06:34 10° NNW 04:12:03 77° ENE 04:17:27 10° SSE
USA 305 4.4 04:10:20 10° WNW 04:14:03 29° N 04:17:48 10° ENE
Cosmos 2322 4.2 04:08:48 10° S 04:14:22 63° ESE 04:19:58 10° NNE
Cosmos 1544 3.2 04:11:17 10° N 04:14:54 74° E 04:18:28 10° SSE
USA 267 3.7 04:09:34 10° NE 04:15:52 51° NNW 04:21:29 13° W
NOSS 3-4 (A) 4.0 04:10:12 10° NW 04:17:02 53° WSW 04:24:33 10° SSE
NOSS 3-4 (C) 4.0 04:10:18 10° NW 04:17:09 53° WSW 04:24:40 10° SSE
COSMOS 2455 4.5 04:12:04 10° NNW 04:17:35 35° NE 04:23:04 10° ESE
USA 306 4.4 04:14:42 10° WNW 04:18:28 30° N 04:22:14 10° ENE
CZ-4B R/B 1.5 04:19:19 10° S 04:22:24 47° W 04:25:36 10° NNW
Cosmos 1864 Rocket 4.5 04:18:02 10° N 04:24:18 80° W 04:30:27 10° S
ADEOS 3.5 04:19:38 10° NNE 04:24:52 76° WNW 04:30:04 10° SSW
Cosmos 1725 Rocket 3.9 04:18:45 10° N 04:24:57 81° W 04:31:07 10° S
Cosmos 540 Rocket 3.8 04:21:06 10° SW 04:26:04 46° WNW 04:31:04 10° NNE
ADEOS Rocket 3.3 04:20:20 10° S 04:26:45 48° W 04:32:34 10° NNW
Cosmos 1975 3.2 04:23:47 10° N 04:27:48 68° E 04:31:46 10° SSE
IDEFIX/ARIANE 42P 4.2 04:26:11 10° NNW 04:29:15 16° WNW 04:32:01 11° W
COSMO-SKYMED 1 3.0 04:25:07 10° SSE 04:29:24 67° ENE 04:33:45 10° N
Cosmos 2333 4.3 04:26:40 10° SSW 04:32:28 86° ESE 04:38:16 10° NNE
Cosmos 2100 Rocket 4.5 04:27:12 10° NNW 04:33:01 39° W 04:38:48 10° SSW
Meteor 1-18 Rocket 4.3 04:27:39 10° S 04:33:12 85° E 04:38:49 10° NNE
Meteor 1-19 Rocket 4.4 04:28:35 10° S 04:34:03 81° E 04:39:45 10° NNE
FENGYUN 3A 3.6 04:30:40 10° N 04:36:04 77° WNW 04:41:28 10° SSW
Cosmos 2360 Rocket 2.5 04:30:49 10° SW 04:36:19 51° WNW 04:41:51 10° NNE
deb Chang Zheng 4 3.7 04:33:17 10° N 04:37:29 53° WNW 04:41:37 10° SSW
SAR-Lupe-4 4.0 04:36:11 10° S 04:39:34 39° W 04:42:58 10° NNW
Cosmos 1459 Rocket 4.5 04:34:30 10° NNW 04:39:57 36° W 04:45:21 10° SSW
ATLAS 2AS CENTAUR R/B 3.1 04:33:46 10° NW 04:40:42 44° WSW 04:47:04 10° S
Cosmos 1802 Rocket 4.3 04:36:16 10° NNW 04:42:04 43° W 04:47:55 10° SSW
Cosmos 1484 Rocket 3.0 04:38:48 10° N 04:42:43 52° WNW 04:46:36 10° SSW
Cosmos 1782 Rocket 3.8 04:39:43 10° N 04:44:14 81° E 04:48:41 10° S
Cosmos 1908 Rocket 3.7 04:41:13 10° NNW 04:45:36 55° W 04:49:58 10° S
Cosmos 44 Rocket 4.0 04:42:50 10° WSW 04:47:16 37° NW 04:51:50 10° NNE
USA 307 4.3 04:43:45 10° NW 04:47:38 32° NNE 04:51:30 10° ENE
Cosmos 1703 Rocket 3.5 04:43:23 10° SSW 04:47:42 76° W 04:52:05 10° N
Cosmos 1980 Rocket 4.3 04:47:44 10° NW 04:48:22 10° NNW 04:49:00 10° NNW
SJ-12 4.0 04:45:13 10° NNE 04:49:23 89° WNW 04:53:31 10° SSW
Okean 1 3.7 04:46:47 10° SSW 04:50:38 42° WNW 04:54:31 10° N
USA 308 4.3 04:47:05 10° NW 04:50:59 33° NNE 04:54:52 10° ENE
USA 234 4.0 04:46:05 10° S 04:51:51 33° SW 04:57:39 10° WNW
